Theta_e
306 300 298 301 303 302 302 300 299 302 305 302 302 302 304 307 308 308 309 311 312 314 318 321 324 326 329 330 338 338 339 344 343 353 353 354 354 354 354 355 353 351 352 352
303 298 303 305 304 302 301 298 298 302 304 303 302 301 305 307 308 309 311 311 312 314 316 319 323 334 332 332 336 341 343 345 348 347 352 354 354 355 353 355 354 354 352 350
300 303 305 303 301 299 300 298 298 298 302 304 302 299 302 307 309 311 312 313 312 314 316 319 321 325 329 329 331 333 339 344 348 348 340 350 355 355 352 352 352 352 353 351
302 305 302 301 299 300 296 302 301 300 298 293 302 292 301 305 306 309 310 312 311 313 315 316 318 321 324 325 329 335 339 342 336 342 342 338 342 345 348 350 352 353 352 353
300 301 301 299 300 303 299 304 302 300 298 298 298 294 299 305 304 306 308 309 310 312 314 315 317 320 322 326 330 335 337 335 336 337 341 336 335 342 348 351 349 350 352 351
301 306 304 303 304 304 305 301 301 301 298 291 296 296 297 301 302 304 307 308 310 311 313 314 317 321 322 323 322 328 332 335 335 333 334 335 339 337 343 345 346 347 349 351
299 300 304 305 300 304 303 299 291 290 291 290 300 296 299 303 304 305 305 307 309 311 312 313 314 315 318 319 323 322 324 328 334 333 331 332 333 339 342 343 345 345 345 347
294 292 301 305 302 299 300 299 292 286 288 291 298 292 298 304 306 308 308 309 310 310 310 312 314 316 314 318 321 321 323 324 327 328 329 331 333 336 340 344 344 343 343 345
295 294 303 304 305 302 298 294 301 294 295 291 294 297 302 304 304 306 306 307 307 309 309 310 312 315 316 318 320 322 321 323 324 327 327 330 331 333 338 343 345 344 345 343
299 293 301 304 304 303 300 302 293 294 285 284 290 292 293 299 301 303 303 304 306 308 309 311 313 315 318 319 319 323 324 323 324 326 325 325 328 333 336 340 341 342 344 336
302 298 297 301 298 295 296 295 296 296 294 286 284 289 301 300 301 301 303 304 306 307 308 310 311 313 315 316 316 319 321 320 319 320 323 325 326 328 330 334 338 340 324 318
302 298 293 296 303 303 300 296 298 291 289 292 291 290 304 304 303 304 303 305 306 308 309 309 311 313 313 313 314 315 318 317 316 318 318 323 324 325 327 329 333 324 321 318
302 296 290 292 297 301 297 297 297 297 297 291 288 290 302 303 304 305 304 305 306 308 308 310 311 311 312 312 312 312 313 313 314 315 315 317 323 323 323 327 330 322 324 317
302 298 294 289 293 297 294 297 297 295 291 290 291 293 299 302 302 303 305 306 307 308 308 309 309 309 310 312 312 312 312 313 314 314 314 315 318 322 322 323 321 323 324 327
301 293 295 296 297 297 296 296 296 294 294 290 293 294 297 300 302 304 306 306 305 305 305 307 307 308 309 309 309 309 309 309 310 311 311 311 314 317 319 320 323 319 324 327
302 293 295 293 296 296 294 296 297 296 295 295 295 294 301 303 304 304 304 303 303 304 304 305 306 306 305 306 305 305 304 304 306 306 306 309 311 311 313 318 319 323 319 325
296 295 292 288 294 294 289 294 295 296 297 296 292 297 302 302 302 302 303 304 302 302 303 303 304 304 304 303 304 302 303 303 303 302 303 305 307 309 309 313 317 318 320 322
296 294 293 288 291 283 295 300 300 298 299 299 299 301 302 301 302 303 303 303 302 302 302 302 302 302 301 301 301 301 301 300 301 300 302 302 303 306 307 308 312 317 320 321
299 294 290 287 287 291 294 298 297 296 296 302 300 301 301 302 302 301 305 304 303 303 303 302 302 300 299 299 299 299 299 298 298 299 300 301 303 302 303 306 308 315 317 320
298 297 291 288 284 282 295 300 303 301 290 302 301 300 299 300 293 297 303 303 303 303 302 299 298 297 297 296 297 296 296 296 295 297 299 301 302 301 302 305 307 309 315 316
291 291 288 288 285 290 300 302 303 289 292 302 302 301 300 297 299 302 304 304 302 301 299 298 296 294 294 295 295 293 293 293 295 296 297 298 299 301 301 301 303 306 310 315
292 290 290 290 286 284 303 301 294 301 304 303 302 301 300 300 301 302 302 301 300 298 296 296 293 292 293 294 294 293 293 295 296 296 296 296 296 298 301 302 302 302 305 310
291 296 292 293 293 303 305 304 306 305 303 303 302 302 301 300 300 301 300 300 297 296 294 294 292 291 293 294 294 292 294 296 296 296 296 295 296 297 297 298 300 299 301 304
299 302 295 295 299 300 304 306 305 305 304 304 303 302 301 300 300 299 299 298 295 294 292 292 291 290 290 292 293 294 296 298 298 298 297 296 296 295 296 297 300 299 299 302
297 299 297 296 300 302 302 304 305 304 304 302 303 302 300 301 299 298 297 295 293 292 291 291 290 290 290 292 293 296 299 299 299 298 297 297 296 296 295 296 297 299 301 302
299 297 295 294 301 300 301 304 304 302 301 302 301 300 302 301 298 298 296 294 292 291 290 289 289 289 290 292 293 296 299 301 300 299 297 295 295 295 295 295 296 295 297 295
Wind_Speed
15 12 14 17 17 19 19 12 13 6 4 5 6 9 12 14 14 12 12 11 11 9 7 7 7 6 5 3 7 7 6 7 4 5 6 9 10 10 10 11 16 16 13 16
12 13 16 15 13 7 9 8 13 12 11 9 10 13 14 15 15 14 13 11 10 7 8 6 7 2 1 6 7 5 7 7 6 4 5 9 10 10 11 11 11 13 16 18
15 12 11 8 5 7 11 12 13 13 12 6 8 15 20 19 20 18 13 8 5 9 8 5 5 6 9 10 10 9 8 7 5 5 6 8 7 7 10 10 11 15 16 20
13 14 5 8 10 12 11 12 13 9 10 10 12 13 16 14 13 14 12 8 10 13 13 11 12 10 9 7 7 6 6 7 7 6 7 10 12 13 12 12 12 13 18 18
14 13 14 12 12 11 11 9 9 8 12 14 16 13 14 16 16 2 14 14 12 10 11 12 12 10 9 6 5 5 6 7 8 8 10 9 13 12 12 11 15 15 12 16
18 17 7 11 11 3 7 9 12 15 14 15 20 19 15 7 10 9 10 8 9 9 8 9 9 9 7 9 10 8 7 6 7 10 14 15 14 15 11 14 11 11 13 13
14 16 14 12 13 11 12 12 11 12 12 12 9 7 8 6 10 7 6 5 5 7 8 9 12 12 10 10 7 10 10 8 6 8 13 17 18 15 17 16 13 15 14 14
12 10 2 14 6 6 10 12 7 9 11 13 17 7 7 1 9 9 5 7 6 5 7 7 10 8 10 11 9 10 11 10 11 10 15 14 15 13 11 14 13 14 15 15
9 13 3 2 6 4 7 11 11 10 11 12 12 18 14 11 10 11 7 10 8 7 7 10 12 7 9 9 7 7 10 9 10 11 14 13 13 14 12 15 14 13 17 10
7 12 14 13 5 11 13 9 8 6 4 8 10 8 6 10 5 2 8 10 7 8 11 9 7 8 7 7 9 9 7 7 10 9 13 13 14 14 14 13 16 15 17 9
9 8 12 9 6 11 8 9 11 11 8 4 5 7 8 7 6 7 9 11 11 11 10 10 10 10 9 10 10 9 7 7 9 12 11 11 13 16 11 10 15 13 7 3
2 5 11 17 15 11 11 11 10 6 10 10 10 13 16 5 6 10 13 12 12 9 10 12 13 11 11 12 12 10 8 8 10 11 11 10 12 13 16 11 10 6 7 2
2 5 9 13 12 14 11 13 12 10 10 15 13 9 14 16 14 11 11 13 13 11 13 12 13 13 13 13 13 13 13 12 11 11 14 13 8 10 13 14 6 6 10 8
3 8 11 11 3 8 9 15 15 15 12 14 16 18 15 15 12 14 13 12 14 15 16 15 14 16 17 16 17 19 17 16 16 16 12 12 12 9 11 13 11 8 9 12
7 12 15 17 21 12 16 19 20 18 17 18 16 18 16 16 14 12 13 16 17 19 20 19 18 16 17 17 17 18 18 18 19 19 18 16 18 15 11 12 9 9 11 16
8 11 12 15 19 19 21 19 23 20 19 18 19 19 17 11 12 13 14 18 20 20 20 21 20 20 18 18 18 20 21 21 20 19 20 20 18 16 19 11 13 6 10 16
3 5 6 13 16 15 16 19 21 17 15 16 15 13 13 13 16 17 17 18 19 19 21 20 20 18 18 21 21 19 20 19 19 20 22 20 21 19 17 21 12 14 11 4
7 4 4 6 9 6 10 7 6 7 9 7 9 12 12 16 18 18 19 16 19 21 21 19 18 18 19 20 20 20 19 19 19 20 20 17 21 19 17 19 18 13 9 7
12 7 3 4 6 13 14 3 2 6 7 17 13 13 16 18 19 16 18 21 20 20 19 16 18 21 21 20 19 19 18 17 19 20 20 21 16 16 21 20 15 15 13 5
12 14 6 3 4 4 8 5 4 5 6 10 11 14 16 17 14 13 21 20 20 16 15 20 23 20 19 18 18 18 18 18 18 18 17 16 18 19 18 18 14 11 13 10
11 8 8 9 6 9 9 6 5 7 5 9 10 12 14 12 13 17 19 18 20 15 22 23 19 18 18 17 17 18 18 18 18 17 17 16 18 19 17 18 13 11 11 13
9 7 7 10 9 12 5 5 3 5 7 9 12 13 15 16 18 19 20 20 17 20 24 20 18 18 18 17 15 17 17 17 17 16 16 15 15 14 12 16 14 9 9 12
5 8 1 2 2 4 4 6 5 4 7 11 12 13 14 17 19 19 19 19 17 21 19 17 17 19 16 16 14 16 17 17 17 16 15 14 14 13 13 14 11 7 8 8
7 10 4 5 6 3 12 3 5 4 9 10 11 13 14 16 18 19 16 15 18 18 17 17 18 18 18 16 16 16 17 17 15 15 13 12 12 12 12 10 11 9 10 7
4 6 7 8 5 3 9 7 8 7 8 10 12 14 15 16 18 16 16 17 17 17 17 16 16 16 18 17 17 17 18 17 13 12 12 12 9 10 10 10 9 8 10 7
6 4 4 4 7 4 4 7 6 8 10 11 13 15 15 16 14 16 16 16 16 18 18 16 16 17 18 17 16 18 17 13 13 9 7 8 8 6 7 7 7 9 12 7
Wind_Direction
196 226 217 222 217 247 282 306 310 201 173 218 244 275 285 283 283 276 273 263 255 253 254 216 213 217 202 196 179 188 200 249 281 289 225 215 214 220 227 224 217 201 191 196
238 226 249 236 257 253 284 285 279 291 299 285 265 272 275 271 268 264 268 271 271 283 284 313 332 313 237 221 227 190 185 204 220 250 246 228 225 220 226 229 225 216 208 201
242 231 201 283 282 261 256 258 272 270 277 263 296 272 255 247 240 240 235 228 235 234 242 264 303 340 20 28 25 10 4 359 346 247 294 262 245 240 235 230 230 226 214 199
249 261 222 259 247 237 246 237 240 269 280 266 267 293 296 290 269 251 233 226 50 28 8 5 16 6 6 359 353 360 352 346 319 301 288 269 254 242 234 230 226 224 219 207
256 229 254 207 246 239 249 317 330 296 277 280 272 266 266 253 240 152 61 46 28 19 1 0 347 341 329 338 352 338 8 342 326 310 289 265 274 251 247 238 236 233 224 222
282 298 265 259 237 309 338 310 286 271 258 256 258 250 260 274 55 69 58 34 17 7 357 336 319 307 323 354 333 329 343 316 329 319 307 284 252 264 252 242 236 230 226 218
255 272 268 237 248 252 240 229 260 261 234 246 263 351 283 350 98 78 52 10 25 17 358 336 326 325 329 316 350 336 319 310 311 298 296 292 282 245 254 244 238 234 224 221
274 251 356 2 305 301 306 298 273 265 289 304 318 221 286 134 96 108 51 37 358 305 288 297 292 296 302 299 319 319 312 308 322 315 299 293 284 276 246 246 245 244 234 230
278 255 209 206 295 331 280 310 1 323 283 274 278 284 259 134 116 103 159 215 230 257 275 275 264 291 296 298 300 287 293 306 298 305 298 294 287 284 262 249 245 247 252 243
286 287 283 275 232 270 262 270 278 258 274 262 258 286 79 81 89 3 321 324 308 283 276 310 301 288 294 295 277 276 263 284 301 298 295 307 309 297 292 254 251 243 247 308
286 274 271 301 225 232 255 232 252 257 196 230 280 265 95 12 14 301 296 295 279 280 309 317 315 300 296 291 296 293 284 294 304 305 299 312 314 315 317 301 271 276 85 141
333 333 254 254 236 252 279 249 224 246 245 241 239 257 283 352 273 253 248 265 308 331 313 304 293 298 298 297 290 296 298 305 298 295 303 301 310 320 315 313 309 160 144 185
273 230 265 257 252 226 239 241 253 264 248 237 252 266 288 283 267 287 296 305 307 311 306 315 320 315 314 314 319 314 304 294 290 298 305 300 297 309 318 314 281 231 199 174
100 260 246 270 359 340 247 255 232 233 231 247 247 261 266 267 303 313 320 342 342 338 331 330 334 333 332 338 348 348 340 340 336 318 296 299 303 293 300 305 323 251 216 188
224 256 266 275 289 234 248 276 272 253 254 250 262 271 291 304 317 348 357 350 335 332 327 325 327 337 342 339 337 334 330 330 327 322 317 314 317 304 284 295 296 298 295 207
311 256 274 273 270 267 268 248 258 267 267 277 281 284 281 351 329 7 342 335 329 324 331 339 332 332 332 326 318 314 309 307 309 306 308 308 300 299 308 277 291 281 280 299
236 245 267 264 266 262 259 255 258 264 292 257 270 305 351 3 356 348 338 329 334 342 332 324 326 320 311 308 304 299 298 298 296 294 287 283 292 287 296 298 254 276 267 266
223 248 248 275 292 244 240 277 321 290 292 313 311 343 9 354 337 333 320 6 342 328 322 322 313 309 309 301 295 290 289 285 279 278 272 274 276 277 279 283 285 249 279 313
217 226 272 254 270 283 289 258 66 352 320 38 15 356 347 337 332 311 8 348 331 322 318 325 327 314 305 300 297 290 285 287 285 276 271 266 260 274 282 276 272 270 251 242
189 205 224 249 268 267 30 155 63 324 253 24 359 348 340 337 319 323 339 322 318 323 346 331 318 309 305 305 300 293 289 284 282 286 273 269 262 252 255 272 273 272 274 244
190 198 233 231 243 268 132 227 306 250 34 354 347 340 339 331 321 317 310 332 321 351 337 322 310 307 306 304 297 291 290 283 281 279 278 274 266 259 247 254 273 283 281 259
196 199 208 229 239 249 51 293 332 29 351 343 351 341 334 328 322 321 334 320 341 336 328 321 314 309 305 300 296 293 289 286 280 275 269 266 265 270 273 242 238 271 276 280
192 222 266 317 290 350 313 353 38 27 333 353 337 336 337 329 328 335 328 327 341 330 319 319 311 307 307 308 304 296 289 288 283 277 270 260 257 250 254 258 244 230 272 258
209 181 207 200 216 199 260 88 44 5 356 342 335 340 338 332 336 331 322 343 333 323 321 318 314 312 312 313 305 296 291 284 279 276 269 266 254 236 237 238 251 212 217 252
173 234 221 249 244 8 67 19 339 353 356 340 345 345 340 344 336 336 342 335 326 321 323 321 317 314 312 310 306 307 298 294 288 271 267 265 243 235 220 226 226 232 215 208
326 325 330 298 55 352 56 216 281 20 344 354 352 340 348 353 348 357 341 330 325 328 325 322 319 316 316 315 320 311 310 313 308 303 308 303 267 234 195 211 217 235 215 186